Location: Breitenfeld
(46.8500°N, 15.6333°E)
Time: 17:19:23
(UTC+00:00)

CZ-2C R/B - Pass Details

Date: 09 April 2020
Orbit: 785 x 870 km, 98.3° (Epoch: 25 May)

Event Time Altitude Azimuth Distance (km) Brightness Sun altitude
Rises 19:16:21 0° 14° (NNE) 3,288 6.0 -16.3°
Reaches altitude 10° 19:18:41 10° 16° (NNE) 2,355 5.2 -16.7°
Maximum altitude 19:23:53 78° 103° (ESE) 812 2.4 -17.4°
Drops below altitude 10° 19:29:05 10° 190° (S) 2,361 4.8 -18.2°
Sets 19:31:25 0° 192° (SSW) 3,297 5.6 -18.5°
